Location: Unspecified
(35.6961°N, 0.0000°E)
Time: 00:44:19
(UTC+00:00)

Vanguard 3 - Pass Details

Date: 05 June 2019
Orbit: 508 x 3263 km, 33.3° (Epoch: 16 June)

Event Time Altitude Azimuth Distance (km) Brightness Sun altitude
Rises 19:52:55 0° 271° (W) 2,694 10.9 -7.7°
Reaches altitude 10° 19:54:50 10° 267° (W) 1,908 9.9 -8.1°
Maximum altitude 19:58:59 61° 187° (S) 836 7.1 -8.7°
Drops below altitude 10° 20:05:27 10° 108° (ESE) 2,945 9.4 -9.8°
Enters shadow 20:05:30 10° 108° (ESE) 2,959 9.4 -9.8°
Sets 20:09:05 0° 106° (ESE) 4,342 - -10.4°
